Location: Houston
(29.7630°N, 95.3630°W)
Time: 20:26:49
(UTC-06:00)

ISS - All Passes

Search period start: 10 February 2016 00:00
Search period end: 20 February 2016 00:00
Orbit: 399 x 408 km, 51.6° (Epoch: 10 February)

Date Brightness Start Highest point End Pass type
(mag) Time Alt. Az. Time Alt. Az. Time Alt. Az.
10 Feb - 14:21:57 10° SSW 14:24:51 30° SE 14:27:45 10° ENE daylight
10 Feb - 15:59:06 10° W 16:01:20 17° NW 16:03:33 10° N daylight
10 Feb - 22:30:31 10° NNW 22:33:18 26° NE 22:36:05 10° E night (unlit)
11 Feb - 00:07:20 10° W 00:09:35 18° SW 00:11:49 10° S night (unlit)
11 Feb - 13:30:39 10° SSE 13:32:21 14° SE 13:34:04 10° E daylight
11 Feb - 15:05:34 10° WSW 15:08:32 33° NW 15:11:31 10° NNE daylight
11 Feb - 21:38:41 10° N 21:40:28 14° NE 21:42:15 10° ENE night (unlit)
11 Feb - 23:13:59 10° WNW 23:17:03 40° SW 23:20:06 10° SSE night (unlit)
12 Feb - 14:12:34 10° SW 14:15:49 79° NW 14:19:04 10° NE daylight
12 Feb - 22:21:10 10° NW 22:24:25 77° NE 22:27:38 10° SE night (unlit)
13 Feb - 13:20:06 10° SSW 13:23:10 40° SE 13:26:14 10° ENE daylight
13 Feb - 14:57:53 10° WNW 14:59:43 14° NW 15:01:34 10° N daylight
13 Feb - 21:28:42 10° NNW 21:31:39 32° NE 21:34:35 10° ESE night (unlit)
13 Feb - 23:06:06 10° W 23:07:50 14° SW 23:09:34 10° SSW night (unlit)
14 Feb - 12:28:19 10° S 12:30:34 17° SE 12:32:48 10° E daylight
14 Feb - 14:04:00 10° W 14:06:49 26° NW 14:09:38 10° NNE daylight
14 Feb - 20:36:36 10° N 20:38:46 17° NE 20:40:56 10° E night (unlit)
14 Feb - 22:12:20 10° WNW 22:15:14 31° SW 22:18:08 10° SSE night (unlit)
15 Feb - 13:10:47 10° SW 13:14:00 60° NW 13:17:12 10° NE daylight
15 Feb - 21:19:19 10° NW 21:22:33 80° SW 21:25:46 10° SE night (unlit)
16 Feb - 12:18:03 10° SSW 12:21:14 53° SE 12:24:25 10° NE daylight
16 Feb - 13:56:33 10° WNW 13:57:53 12° NW 13:59:14 10° N daylight
16 Feb - 20:26:39 10° NNW 20:29:44 40° NE 20:32:48 10° ESE visible
16 Feb - 22:05:01 10° WSW 22:05:51 11° SW 22:06:39 10° SW night (unlit)
17 Feb - 11:25:56 10° S 11:28:32 22° SE 11:31:07 10° ENE daylight
17 Feb - 13:02:15 10° W 13:04:52 22° NW 13:07:28 10° NNE daylight
17 Feb - 19:34:20 10° N 19:36:48 20° NE 19:39:16 10° E visible
17 Feb - 21:10:30 10° WNW 21:13:12 24° SW 21:15:52 10° S night (unlit)
18 Feb - 12:08:47 10° WSW 12:11:56 46° NW 12:15:05 10° NNE daylight
18 Feb - 18:42:49 10° NNE 18:43:44 11° NE 18:44:39 10° NE visible
18 Feb - 20:17:14 10° NW 20:20:26 60° SW 20:23:36 10° SSE visible
19 Feb - 11:15:49 10° SW 11:19:03 70° SE 11:22:18 10° NE daylight
19 Feb - 12:55:28 10° NW 12:55:48 10° NNW 12:56:07 10° NNW daylight
19 Feb - 19:24:24 10° NNW 19:27:34 52° NE 19:30:44 10° ESE visible
